Погода в Овстуге

Россия / Брянская область     53°22′13″N   33°52′39″E
темп.,
°C
ветер,
м/с
пор.,
м/с
влажн.,
%
обл.,
%
осадки,
мм/ч
давл.,
гПа
погр.,
м
18 апреля, вс
вс1800:00+6ю4793100 0.4 1016533
03:00+5ю5793100 2.2 1016787
06:00+5ююв478983 0.9 1016614
09:00+6в4687100 0.9 1017606
12:00+8всв567497 0.3 1018916
15:00+10всв456470 0.7 10181185
18:00+9св456396 0.2 1018266
21:00+6ссв369225 0.8 1020259
19 апреля, пн
пн1900:00+5ссв499770 0.0 1020289
03:00+6ссв5886100 0.0 1019579
06:00+5ссв599198 0.0 1019545
09:00+7св6982100 0.0 1020720
12:00+8св6879100 0.0 1019932
15:00+8св5885100 0.3 10201043
18:00+5св61096100 0.3 1020688
21:00+4св5996100 0.3 1020527
20 апреля, вт
вт2000:00+3св4898100 0.1 1019485
03:00+3св4998100 0.1 1018546
06:00+3св5797100 0.1 1016417
09:00+4св4897100 0.2 1015315
12:00+10в5775100 0.0 10131025
15:00+10в71081100 0.2 10111125
18:00+8всв71285100 0.1 1008921
21:00+5св81496100 3.1 1005957
21 апреля, ср
ср2100:00+3ссв91797100 4.7 1000743
03:00+4с71298100 10.9 995520
06:00+3сз71198100 5.8 995300
09:00+3зсз81497100 8.1 998522
12:00+3з81396100 0.4 1003770
15:00+5зюз71288100 0.5 10071145
18:00+6зюз5118492 0.1 1010754
21:00+6юз5118486 0.1 1013397
22 апреля, чт
чт2200:00+5ююз4990100 0.1 1015249
03:00+5ююз3886100 0.1 1017218
06:00+3ююз368798 0.0 1019108
09:00+6ю41083100 0.0 1020360
12:00+11ююз577176 0.0 10211048
15:00+12ююз5663100 1.3 10211424
18:00+12ю466865 0.1 1021674
21:00+8ююв34857 0.1 102352